This demonstration page uses our WeatherBlox Daily Observations layout. Learn more.

41.55636, -103.73856

Hourly Observations for April 2, 2015

Temp ( °F °C ) Dew Point ( °F °C ) Humidity (%) Winds ( mph kmh ) Pressure ( in mb ) Visibility ( mi km ) Precip ( " mm )
12:53 am 00:53 Clear 32 0 23 -5 69 69 NW 10 17 29.88 1012 10 16.0934 0 0
1:53 am 01:53 Clear 31 -0.6 23 -5 72 72 NW 9 15 29.89 1012 10 16.0934 0 0
2:53 am 02:53 Clear 30 -1.1 23 -5 75 75 NW 8 13 29.92 1013 10 16.0934 0 0
3:53 am 03:53 Clear 29 -1.7 22 -5.6 75 75 NNW 8 13 29.92 1013 10 16.0934 0 0
4:53 am 04:53 Clear 29 -1.7 22 -5.6 75 75 Calm 29.93 1014 10 16.0934 0 0
5:53 am 05:53 Clear 29 -1.7 23 -5 78 78 NW 5 7 29.96 1014 10 16.0934 0 0
6:53 am 06:53 Sunny 30 -1.1 23 -5 75 75 NW 7 11 29.97 1015 10 16.0934 0 0
7:53 am 07:53 Partly Cloudy 33 0.6 24 -4.4 70 70 WSW 8 13 30 1016 10 16.0934 0 0
8:53 am 08:53 Cloudy 37 2.8 25 -3.9 62 62 W 5 7 29.98 1015 9 14.48406 0 0
9:53 am 09:53 Cloudy 41 5 22 -5.6 47 47 WSW 5 7 30.01 1016 9 14.48406 0 0
10:53 am 10:53 Cloudy 47 8.3 15 -9.4 28 28 N 12 19 30.01 1016 10 16.0934 0 0
11:53 am 11:53 Cloudy 45 7.2 18 -7.8 34 34 VRB 3 6 30.02 1017 10 16.0934 0 0
12:53 pm 12:53 Cloudy 45 7.2 23 -5 42 42 VRB 7 11 30.01 1016 10 16.0934 0 0
1:22 pm 13:22 Cloudy 43 6 25 -4 49 49 N 10 17 30 1016 10 16.0934 0 0
1:53 pm 13:53 Cloudy 41 5 26 -3.3 55 55 NNE 14 22 30.03 1017 9 14.48406 0 0
2:23 pm 14:23 Cloudy with Light Rain 39 3.9 30 -1.1 70 70 VRB 7 11 30.03 1017 7 11.26538 0 0.0254
2:53 pm 14:53 Cloudy with Light Snow 38 3.3 33 0.6 83 83 N 10 17 30.06 1018 5 8.0467 0.01 0.254
3:07 pm 15:07 Cloudy with Light Rain 40 4.4 32 0 73 73 N 12 19 30.03 1017 10 16.0934 0 0.0254
3:53 pm 15:53 Cloudy with Light Rain 39 3.9 32 0 76 76 N 15 24 30.07 1018 7 11.26538 0 0.0254
4:05 pm 16:05 Cloudy with Light Rain 39 3.9 31 -0.6 73 73 N 16 26 30.03 1017 7 11.26538 0 0.0254
4:41 pm 16:41 Cloudy with Light Rain 39 3.9 30 -1.1 70 70 N 13 20 30.09 1019 10 16.0934 0 0.0254
4:53 pm 16:53 Cloudy 40 4.4 29 -1.7 65 65 NNW 12 19 30.08 1019 10 16.0934 0 0.0254
5:53 pm 17:53 Cloudy 43 6.1 24 -4.4 47 47 NNW 13 20 30.07 1018 10 16.0934 0 0
6:53 pm 18:53 Cloudy 43 6.1 22 -5.6 43 43 NNW 14 22 30.09 1019 10 16.0934 0 0
7:53 pm 19:53 Cloudy 39 3.9 21 -6.1 48 48 WNW 7 11 30.12 1020 10 16.0934 0 0
8:53 pm 20:53 Cloudy 39 3.9 17 -8.3 41 41 NNW 12 19 30.14 1021 10 16.0934 0 0
9:17 pm 21:17 Mostly Cloudy 39 3.9 23 -5 53 53 NNE 14 22 30.18 1022 10 16.0934 0 0
9:53 pm 21:53 Clear 36 2.2 23 -5 59 59 NE 14 22 30.17 1022 10 16.0934 0 0
10:53 pm 22:53 Clear 35 1.7 21 -6.1 57 57 NE 13 20 30.19 1022 10 16.0934 0 0
11:53 pm 23:53 Clear 34 1.1 18 -7.8 52 52 NNE 13 20 30.22 1024 10 16.0934 0 0

Powered by AerisWeather